РПИ Шымкент

РПИ Шымкент является структурным подразделением дивизиона VATRUS сети VATSIM.

РПИ осуществляет свою деятельность в границах Жамбыльской, Туркестанской и Кызылординской областей Республики Казахстан.

Схемы и аэронавигационную информацию можно получить на сайте   Казаэронавигация

Официальный Discord сервер региона Казахстан в VATSIM: https://discord.gg/eERFMeb2xR

Средства связи ОВД:

UAII_CTR - Шымкент Контроль - 132.700

RU-CEN_FSS - Азия Центр  - 132.850 (РПИ: UACN, UAAA, UAII, UATT, UTAA, UCFM, UTAT, UTDD, UTTR,  UCFO,  UTSD, UTAV,  UTAK)

Лого Шымкент
Руководство

Evgeny Vygornitsky*

Куратор

Dmitriy Bannov

Помощник куратора по Казахстану

Aleksandr Sokolov

Помощник куратора по Казахстану
Инструкторы РПИ
Aleksandr Sokolov (Instructor)
Dmitriy Bannov (Instructor)
Evgeny Vygornitsky (Supervisor)
Входит в состав
Центральная Азия

Диспетчеры РПИ

Диспетчер Рейтинг Допуски *

Аэропорты РПИ

ICAO Город Название Погода
UAII Шымкент Шымкент UAII 250630Z 17005MPS 9999 BKN046CB 19/12 Q1013 NOSIG RMK QFE725/0966